Regional Weather Roundup
Issued by NWS Northern Indiana

Home | Current Version | Previous Version | Graphics & Text | Print | Product List | Glossary On
Versions: 1 2 3 4 5 6 7 8 9 10 11 12 13 14 15 16 17 18 19 20 21 22 23 24 25 26 27 28 29 30 31 32 33 34 35 36 37 38 39 40 41 42 43 44 45 46 47 48 49 50
000
ASUS43 KIWX 250010
RWRIWX

KIWX WEATHER ROUNDUP
NATIONAL WEATHER SERVICE NORTHERN INDIANA
700 PM EST SAT JAN 24 2015

NOTE: "FAIR" INDICATES FEW OR NO CLOUDS BELOW 12,000 FEET WITH NO
SIGNIFICANT WEATHER AND/OR OBSTRUCTIONS TO VISIBILITY.

* THESE STATIONS ARE NOT UNDER NWS QUALITY CONTROL. THEY ALSO MAY NOT
  REPORT WEATHER SUCH AS PRECIPITATION OR FOG.

INZ001>027-250100-
NORTHERN INDIANA

CITY           SKY/WX    TMP DP  RH WIND       PRES   REMARKS
GARY*          MOCLDY    39  30  70 W14       29.69R
VALPARAISO     CLOUDY    38  33  82 SW7       29.69R
6HR MIN TEMP:  38; 6HR MAX TEMP:  42;

MICHIGAN CITY* CLOUDY    37  28  70 W3        29.69R
LAPORTE*       CLOUDY    38  33  81 SW5       29.69R
6HR MIN TEMP:  38; 6HR MAX TEMP:  46;

KNOX*          CLOUDY    37  26  64 W9        29.68R
6HR MIN TEMP:  -9; 6HR MAX TEMP:  81;

SOUTH BEND     CLOUDY    37  30  75 SW5       29.67R
6HR MIN TEMP:  37; 6HR MAX TEMP:  42;

GOSHEN         CLOUDY    37  31  78 SW7       29.67R
6HR MIN TEMP:  36; 6HR MAX TEMP:  40;

MONTICELLO*    CLOUDY    38  35  90 SW7       29.70R
6HR MIN TEMP:  37; 6HR MAX TEMP:  42;

LOGANSPORT*    CLOUDY    37  34  87 W9        29.71R
ROCHESTER*     CLOUDY    39  36  87 SW7       29.70R
WARSAW*        CLOUDY    37  32  81 SW6       29.68R
ANGOLA*        CLOUDY    36  25  64 SW5       29.65R
FORT WAYNE     CLOUDY    36  31  82 SW7       29.69S
6HR MIN TEMP:  32; 6HR MAX TEMP:  37;

HUNTINGTON*    CLOUDY    36  30  77 CALM      29.69S
6HR MIN TEMP:  32; 6HR MAX TEMP:  38;

PERU/GRISSOM   CLOUDY    38  34  84 W12       29.70R
6HR MIN TEMP:  35; 6HR MAX TEMP:  41;

MARION*        CLOUDY    36  32  86 SW7       29.72R
6HR MIN TEMP:  -2; 6HR MAX TEMP:  46;


$$
INZ028>050-250100-
CENTRAL INDIANA

CITY           SKY/WX    TMP DP  RH WIND       PRES   REMARKS
LAFAYETTE      PTCLDY    37  33  85 SW7       29.72R
6HR MIN TEMP:  37; 6HR MAX TEMP:  43;

KOKOMO*        CLOUDY    37  34  87 SW7       29.71R
6HR MIN TEMP:  34; 6HR MAX TEMP:  39;

MUNCIE*        CLOUDY    37  30  75 SW6       29.72R
6HR MIN TEMP:  32; 6HR MAX TEMP:  37;

INDIANAPOLIS   PTCLDY    32  28  85 SW7       29.75R WCI  26
6HR MIN TEMP:  32; 6HR MAX TEMP:  39;


$$
MIZ043>046-050>051-056>058-064>065-071>073-077>080-250100-
SOUTHWEST LOWER MICHIGAN

CITY           SKY/WX    TMP DP  RH WIND       PRES   REMARKS
BATTLE CREEK   CLOUDY    37  32  82 SW9       29.63S
6HR MIN TEMP:  36; 6HR MAX TEMP:  40; 6HR PCP: TRACE;

BENTON HARBOR  CLOUDY    37  32  82 SW9       29.65S
6HR MIN TEMP:  36; 6HR MAX TEMP:  38;

COLDWATER*     CLOUDY    34  32  90 W7        29.64R WCI  28
6HR MIN TEMP:  33; 6HR MAX TEMP:  36;

HILLSDALE*     CLOUDY    36  32  87 W9        29.62S
HOLLAND        CLOUDY    39  33  79 W8        29.64R
6HR MIN TEMP:  38; 6HR MAX TEMP:  39;

GRAND RAPIDS   CLOUDY    35  32  88 W6        29.63R WCI  30
6HR MIN TEMP:  35; 6HR MAX TEMP:  38; 6HR PCP: TRACE;

KALAMAZOO      CLOUDY    36  31  82 SW6       29.64S
6HR MIN TEMP:  35; 6HR MAX TEMP:  38; 6HR PCP: TRACE;

STURGIS*       CLOUDY    36  30  80 SW5       29.65R
THREE RIVERS*  CLOUDY    36  31  82 SW6       29.65S

$$
OHZ001>008-015>018-024>025-250100-
NORTHWEST OHIO

CITY           SKY/WX    TMP DP  RH WIND       PRES   REMARKS
WAUSEON*       CLOUDY    36  30  80 SW10      29.65S
DEFIANCE       CLOUDY    36  30  79 SW5       29.68S
6HR MIN TEMP:  32; 6HR MAX TEMP:  37;

FINDLAY        CLOUDY    35  30  82 W10       29.69R WCI  27
6HR MIN TEMP:  32; 6HR MAX TEMP:  35; 6HR PCP: TRACE;

TOLEDO EXPRESS CLOUDY    34  29  82 SW8       29.65R WCI  27
6HR MIN TEMP:  30; 6HR MAX TEMP:  34;

TOLEDO METCALF CLOUDY    34  28  79 SW12      29.66R WCI  25
6HR MIN TEMP:  32; 6HR MAX TEMP:  34;

LIMA           CLOUDY    35  30  82 SW8       29.71R WCI  29
6HR MIN TEMP:  32; 6HR MAX TEMP:  35;


$$
AND FOR LAKE MICHIGAN COASTAL AND OPEN LAKE BUOY OBSERVATIONS

STATION/POSITION TEMP    WIND        PRES    VSBY  WAVE
                 AIR SEA DIR/SP/G                  HT/PER
                 (F)     (DEG/KT/KT) (MB)    (MI)  (FT/S)
CALUMET HARBOR    37     260/  5/  9   N/A
MICHIGAN CITY     36     210/ 11/ 12   N/A
SAINT JOSEPH      36     180/  9/ 11 1005.1S

$$
&&



USA.gov is the U.S. government's official web portal to all federal, state and local government web resources and services.